Date,TemperatureHighF,TemperatureAvgF,TemperatureLowF,DewpointHighF,DewpointAvgF,DewpointLowF,HumidityHigh,HumidityAvg,HumidityLow,PressureMaxIn,PressureMinIn,WindSpeedMaxMPH,WindSpeedAvgMPH,GustSpeedMaxMPH,PrecipitationSumIn
2012-12-1,59.0,50.5,41.2,51.4,44.9,36.7,86,81,75,30.13,29.87,20,4,27,0.00
2012-12-2,63.1,55.1,46.8,54.9,50.2,44.2,92,84,70,30.06,29.85,20,3,25,0.03
2012-12-3,70.0,60.4,46.9,63.3,55.9,44.8,97,86,69,30.03,29.74,29,4,36,0.00
2012-12-4,63.1,52.7,39.2,57.0,36.2,25.5,81,54,40,30.27,29.85,23,3,23,0.00
2012-12-5,39.9,35.6,30.0,30.4,25.6,18.5,75,67,54,30.43,30.22,15,2,18,0.00
2012-12-6,46.0,40.5,34.2,39.9,32.5,26.6,79,73,64,30.23,29.91,13,3,18,0.00
2012-12-7,45.9,42.9,41.2,41.0,38.6,36.7,90,85,80,29.96,29.87,13,3,14,0.07
2012-12-8,43.0,39.7,38.1,39.6,34.9,30.4,92,83,73,30.12,29.85,19,5,23,0.12
2012-12-9,41.5,39.2,36.1,39.7,36.3,32.5,93,89,80,30.10,29.71,21,4,21,0.13
2012-12-10,38.5,32.9,29.8,34.7,27.6,21.6,89,81,71,29.97,29.70,21,3,21,0.00
2012-12-11,35.8,31.2,26.1,25.0,22.2,18.5,81,70,50,30.18,29.96,26,5,30,0.00
2012-12-12,45.9,36.6,28.9,29.7,26.0,23.0,79,66,46,30.33,30.18,18,4,21,0.00
2012-12-13,49.3,40.5,33.8,32.0,27.9,24.4,72,62,42,30.29,30.09,27,5,27,0.00
2012-12-14,47.5,41.5,33.4,34.7,31.5,27.7,80,68,55,30.21,30.03,11,1,13,0.00
2012-12-15,50.0,46.4,43.5,48.0,40.3,31.5,93,80,57,30.03,29.57,21,4,21,0.23
2012-12-16,49.5,43.9,38.7,47.3,39.7,34.0,92,85,81,29.73,29.56,19,4,19,0.00
2012-12-17,41.4,37.7,32.2,34.0,31.9,27.3,83,80,72,29.74,29.65,10,1,11,0.00
2012-12-18,41.5,36.2,31.8,37.4,31.1,26.6,85,82,78,29.80,29.61,21,3,23,0.00
2012-12-19,41.9,37.2,32.7,37.9,32.8,29.1,87,84,76,30.06,29.80,16,1,18,0.02
2012-12-20,48.7,41.0,34.2,47.3,38.7,30.7,95,91,86,29.82,29.01,27,6,36,0.96
2012-12-21,34.3,27.2,20.8,31.5,21.3,14.7,90,78,73,30.19,29.40,34,7,40,0.00
2012-12-22,34.3,26.0,18.3,23.7,17.7,12.6,79,71,51,30.23,29.96,10,1,11,0.01
2012-12-23,35.2,30.7,25.0,30.7,25.7,21.0,86,82,76,30.03,29.93,13,2,14,0.00
2012-12-24,34.5,32.7,28.9,29.1,26.7,22.6,81,78,75,30.10,29.85,14,3,22,0.00
2012-12-25,32.7,30.0,27.1,28.8,24.5,19.8,90,80,73,30.31,30.10,22,3,25,0.00
2012-12-26,32.4,31.7,29.3,27.1,25.2,23.4,81,77,71,30.22,29.99,28,7,30,0.00
2012-12-27,32.2,30.3,28.2,29.8,26.4,22.6,91,86,78,30.19,30.07,11,2,13,0.01
2012-12-28,32.4,31.6,30.4,29.8,27.5,25.9,91,85,81,30.13,29.88,8,1,11,0.01
2012-12-29,32.2,28.1,20.7,28.4,23.6,15.3,89,83,78,30.22,29.86,16,5,19,0.00
2012-12-30,33.4,25.7,16.2,27.0,18.8,11.1,81,75,64,30.36,30.09,23,4,23,0.00
2012-12-31,35.4,30.5,20.7,26.8,22.8,12.7,77,73,67,30.15,30.01,22,3,24,0.00